Hourly Data Report for October 28, 2013

All times are specified in Local Standard Time (LST). Add 1 hour to adjust for Daylight Saving Time where and when it is observed.

PENTICTON A
BRITISH COLUMBIA

49°27'45.000" N
119°36'08.000" W
344.40 m
1126146
71889
YYF

Download Data

Hourly Data (October 2013)
Hourly Data Report for October 28, 2013
Temp Definition
°C
Dew Point Temp Definition
°C
Rel Hum Definition
%
Wind Dir Definition
10's deg

Wind Spd Definition
km/h
Visibility Definition
km
Stn Press Definition
kPa
Hmdx Definition


Wind Chill Definition


Weather Definition


TIME
00:00 Legend Double Dagger 8.8 0.0 54 33 24 24.1 97.92     LegendNANA
01:00 Legend Double Dagger 8.3 -0.4 54 32 27 24.1 97.98     Mainly Clear
02:00 Legend Double Dagger 7.9 -1.3 52 33 28 24.1 97.96     LegendNANA
03:00 Legend Double Dagger 7.5 -1.7 52 33 31 24.1 97.96     LegendNANA
04:00 Legend Double Dagger 7.0 -1.9 53 32 27 24.1 98.00     Mainly Clear
05:00 Legend Double Dagger 6.4 -2.2 54 32 28 24.1 98.02     LegendNANA
06:00 Legend Double Dagger 6.3 -2.8 52 33 30 24.1 98.01     LegendNANA
07:00 Legend Double Dagger 6.2 -2.9 52 32 31 24.1 98.05     Clear
08:00 Legend Double Dagger 6.8 -2.9 50 34 25 24.1 98.06     LegendNANA
09:00 Legend Double Dagger 7.9 -3.0 46 33 26 24.1 98.03     LegendNANA
10:00 Legend Double Dagger 8.7 -3.5 42 33 30 24.1 97.98     Mainly Clear
11:00 Legend Double Dagger 9.7 -3.9 38 1 27 24.1 97.90     LegendNANA
12:00 Legend Double Dagger 10.2 -3.8 37 36 22 24.1 97.81     LegendNANA
13:00 Legend Double Dagger 11.0 -4.2 34 35 26 24.1 97.75     Clear
14:00 Legend Double Dagger 11.1 -5.4 31 34 26 24.1 97.67     LegendNANA
15:00 Legend Double Dagger 11.0 -4.6 33 36 21 24.1 97.64     LegendNANA
16:00 Legend Double Dagger 9.2 -4.7 37 33 19 24.1 97.61     Clear
17:00 Legend Double Dagger 8.2 -4.9 39 32 14 24.1 97.62     LegendNANA
18:00 Legend Double Dagger 7.2 -4.2 44 36 11 24.1 97.66     LegendNANA
19:00 Legend Double Dagger 7.1 -3.5 47 3 14 24.1 97.70     Clear
20:00 Legend Double Dagger 6.0 -3.1 52 5 18 24.1 97.71     LegendNANA
21:00 Legend Double Dagger 5.7 -3.1 53 36 8 24.1 97.73     LegendNANA
22:00 Legend Double Dagger 2.0 -3.7 66 36 13 24.1 97.74     Clear
23:00 Legend Double Dagger 2.5 -3.4 65 2 13 24.1 97.73     LegendNANA

Notes on Data Quality.

Legend

  • E = Estimated
  • M = Missing
  • NA = Not Available
  • ‡ = Partner data that is not subject to review by the National Climate Archives
Date modified: